Home > Weather > Roanoke > Past weeks

Flag for USA Past Weather in Roanoke, Virginia, USA — Yesterday and Last 2 Weeks

Now
80 °F

Broken clouds.


Feels Like: 84 °F
Forecast: 64 / 84 °F
Wind: 7 mph from Southwest

Location: Roanoke Regional Airport

Current Time: Jun 27, 2016 at 4:28:48 PM

Latest Report: Jun 27, 2016 at 3:54 PM


Visibility: 10 mi

Pressure: 30.02 "Hg

Humidity: 79%

Dew Point: 73 °F

Location of RoanokeLocation

Past Weather in Roanoke — Graph

°F

Roanoke Temperature Yesterday

Maximum temperature yesterday: 82 °F (at 3:54 PM)
Minimum temperature yesterday: 68 °F (at 1:54 AM)
Average temperature yesterday: 74 °F

High & Low Weather Summary for the Past Weeks

 TemperatureHumidityPressure
High93 °F (Jun 12, 2:54 PM)100% (Jun 18, 4:54 AM)30.42 "Hg (Jun 18, 4:54 AM)
Low54 °F (Jun 19, 4:54 AM)21% (Jun 13, 2:54 PM)29.64 "Hg (Jun 16, 7:54 PM)
Average74 °F68%30.04 "Hg
* Reported Jun 12 2:54 PM — Jun 27 2:54 PM, Roanoke, Weather by CustomWeather, © 2016

Note: Actual official high and low records may vary slightly from our data, if they occured in-between our weather recording intervals... More about our weather records

Advertising

Roanoke Weather History for the Previous 24 Hours

Scroll right to see more
 ConditionsComfort  
Time TempWeatherWind HumidityBarometerVisibility
2:54 PM
Mon, Jun 27
77 °FBroken clouds.5 mph85%30.03 "Hg10 mi
1:54 PM76 °FThunderstorms. Partly sunny.8 mph88%30.06 "Hg7 mi
12:54 PM83 °FThunderstorms. Partly sunny.5 mph63%30.06 "Hg10 mi
11:54 AM82 °FScattered clouds.6 mph60%30.07 "Hg10 mi
10:54 AM80 °FSunny.3 mph60%30.09 "Hg10 mi
9:54 AM76 °FPassing clouds.3 mph67%30.11 "Hg10 mi
8:54 AM72 °FPassing clouds.No wind76%30.12 "Hg10 mi
7:54 AM69 °FPartly sunny.No wind84%30.12 "Hg10 mi
6:54 AM66 °FPassing clouds.No wind93%30.12 "Hg10 mi
5:54 AM66 °FPartly cloudy.No wind90%30.11 "Hg10 mi
4:54 AM66 °FClear.No wind90%30.11 "Hg10 mi
3:54 AM65 °FPassing clouds.No wind94%30.12 "Hg10 mi
2:54 AM67 °FClear.No wind90%30.13 "Hg10 mi
1:54 AM69 °FClear.No wind84%30.16 "Hg10 mi
12:54 AM69 °FClear.No wind84%30.16 "Hg10 mi
11:54 PM
Sun, Jun 26
73 °FClear.5 mph71%30.17 "Hg10 mi
10:54 PM75 °FOvercast.3 mph69%30.16 "Hg10 mi
9:54 PM74 °FClear.5 mph71%30.14 "Hg10 mi
8:54 PM75 °FSunny.7 mph69%30.12 "Hg10 mi
7:54 PM77 °FPassing clouds.6 mph66%30.12 "Hg10 mi
6:54 PM78 °FPassing clouds.8 mph64%30.13 "Hg10 mi
5:54 PM81 °FPassing clouds.9 mph62%30.15 "Hg10 mi
4:54 PM82 °FPassing clouds.10 mph58%30.16 "Hg10 mi
Weather by CustomWeather, © 2016

See weather overviewHow to use our weather pages